When you browse on this site, cookies collect data to enhance your experience and personalize the content and advertising you see.
Visit our Privacy Policy to learn more. By continuing to use the site, you agree to this use of cookies and data.
  • In Czech Republic
  • List of Countries
  • For 7 days
  • Water Temperature
  • Weather Map
  • Weather Widgets
  • user-avatar
    Login

    Hourly Weather Adelaide

    Today, 19 November, Tuesday

    Time Temperature Precipitation Wind Pressure Humidity
    00:00 +19°C° 0 mm 1 mps 756 mmHg 61%
    01:00 +18°C° 0 mm 1 mps 756 mmHg 62%
    02:00 +18°C° 0 mm 1 mps 755 mmHg 64%
    03:00 +16°C° 0 mm 1 mps 755 mmHg 69%
    04:00 +18°C° 0 mm 1 mps 755 mmHg 67%
    05:00 +19°C° 0 mm 1 mps 756 mmHg 65%
    06:00 +19°C° 0 mm 1 mps 756 mmHg 63%
    07:00 +22°C° 0 mm 1 mps 756 mmHg 55%
    08:00 +24°C° 0 mm 2 mps 756 mmHg 48%
    09:00 +27°C° 0 mm 2 mps 757 mmHg 41%
    10:00 +28°C° 0 mm 3 mps 756 mmHg 39%
    11:00 +28°C° 0 mm 3 mps 756 mmHg 37%
    12:00 +29°C° 0 mm 3 mps 756 mmHg 35%
    13:00 +29°C° 0 mm 3 mps 755 mmHg 36%
    14:00 +29°C° 0 mm 3 mps 755 mmHg 37%
    15:00 +29°C° 0 mm 2 mps 754 mmHg 38%
    16:00 +27°C° 0 mm 2 mps 755 mmHg 43%
    17:00 +26°C° 0 mm 2 mps 755 mmHg 48%
    18:00 +24°C° 0 mm 2 mps 755 mmHg 53%
    19:00 +23°C° 0 mm 2 mps 755 mmHg 54%
    20:00 +21°C° 0 mm 3 mps 755 mmHg 55%
    21:00 +22°C° 0 mm 3 mps 755 mmHg 50%
    22:00 +22°C° 0 mm 3 mps 754 mmHg 47%
    23:00 +22°C° 0 mm 3 mps 754 mmHg 45%

    Tomorrow, 20 November, Wednesday

    Time Temperature Precipitation Wind Pressure Humidity
    00:00 +22°C° 0 mm 3 mps 753 mmHg 43%
    01:00 +22°C° 0 mm 3 mps 753 mmHg 42%
    02:00 +22°C° 0 mm 3 mps 752 mmHg 42%
    03:00 +24°C° 0 mm 3 mps 751 mmHg 42%
    04:00 +25°C° 0 mm 4 mps 751 mmHg 38%
    05:00 +26°C° 0 mm 4 mps 751 mmHg 34%
    06:00 +28°C° 0 mm 5 mps 752 mmHg 30%
    07:00 +32°C° 0 mm 5 mps 751 mmHg 25%
    08:00 +34°C° 0 mm 5 mps 751 mmHg 21%
    09:00 +38°C° 0 mm 6 mps 751 mmHg 16%
    10:00 +39°C° 0 mm 7 mps 750 mmHg 15%
    11:00 +40°C° 0 mm 7 mps 750 mmHg 14%
    12:00 +41°C° 0 mm 8 mps 749 mmHg 13%
    13:00 +41°C° 0 mm 8 mps 748 mmHg 13%
    14:00 +41°C° 0 mm 8 mps 747 mmHg 13%
    15:00 +41°C° 0 mm 8 mps 746 mmHg 13%
    16:00 +40°C° 0 mm 8 mps 746 mmHg 14%
    17:00 +39°C° 0 mm 7 mps 746 mmHg 15%
    18:00 +38°C° 0 mm 6 mps 746 mmHg 15%
    19:00 +36°C° 0 mm 6 mps 746 mmHg 15%
    20:00 +35°C° 0 mm 6 mps 746 mmHg 16%
    21:00 +34°C° 0 mm 6 mps 745 mmHg 16%
    22:00 +34°C° 0 mm 6 mps 745 mmHg 15%
    23:00 +34°C° 0 mm 7 mps 744 mmHg 15%

    Day after tomorrow, 21 November, Thursday

    Time Temperature Precipitation Wind Pressure Humidity
    00:00 +34°C° 0 mm 7 mps 744 mmHg 14%
    01:00 +34°C° 0 mm 8 mps 744 mmHg 16%
    02:00 +33°C° 0 mm 8 mps 744 mmHg 19%
    03:00 +33°C° 0 mm 9 mps 744 mmHg 21%
    04:00 +28°C° 0 mm 8 mps 746 mmHg 39%
    05:00 +23°C° 0 mm 8 mps 747 mmHg 57%
    06:00 +18°C° 0 mm 7 mps 749 mmHg 76%
    07:00 +18°C° 0 mm 8 mps 750 mmHg 76%
    08:00 +17°C° 0 mm 8 mps 752 mmHg 76%
    09:00 +17°C° 0 mm 8 mps 753 mmHg 76%
    10:00 +18°C° 0 mm 7 mps 754 mmHg 68%
    11:00 +21°C° 0 mm 7 mps 754 mmHg 60%
    12:00 +22°C° 0 mm 6 mps 754 mmHg 52%
    13:00 +22°C° 0 mm 6 mps 754 mmHg 51%
    14:00 +21°C° 0 mm 6 mps 754 mmHg 50%
    15:00 +21°C° 0 mm 6 mps 754 mmHg 49%
    16:00 +20°C° 0 mm 6 mps 755 mmHg 51%
    17:00 +19°C° 0 mm 5 mps 755 mmHg 53%
    18:00 +17°C° 0 mm 5 mps 756 mmHg 55%
    19:00 +17°C° 0 mm 4 mps 757 mmHg 63%
    20:00 +14°C° 0 mm 4 mps 757 mmHg 72%
    21:00 +13°C° 0 mm 3 mps 758 mmHg 80%
    22:00 +12°C° 0 mm 3 mps 758 mmHg 82%
    23:00 +12°C° 0 mm 3 mps 758 mmHg 83%

    22 November, Friday

    Time Temperature Precipitation Wind Pressure Humidity
    00:00 +13°C° 0 mm 2 mps 759 mmHg 85%
    01:00 +12°C° 0 mm 2 mps 759 mmHg 85%
    02:00 +12°C° 0 mm 2 mps 759 mmHg 85%
    03:00 +11°C° 0 mm 3 mps 759 mmHg 85%
    04:00 +13°C° 0 mm 2 mps 759 mmHg 81%
    05:00 +13°C° 0 mm 2 mps 760 mmHg 76%
    06:00 +14°C° 0 mm 2 mps 760 mmHg 72%
    07:00 +16°C° 0 mm 2 mps 760 mmHg 62%
    08:00 +17°C° 0 mm 2 mps 760 mmHg 53%
    09:00 +19°C° 0 mm 3 mps 760 mmHg 43%
    10:00 +20°C° 0 mm 3 mps 760 mmHg 42%
    11:00 +20°C° 0 mm 4 mps 760 mmHg 40%
    12:00 +21°C° 0 mm 4 mps 759 mmHg 39%
    13:00 +21°C° 0 mm 5 mps 759 mmHg 37%
    14:00 +21°C° 0 mm 5 mps 759 mmHg 35%
    15:00 +20°C° 0 mm 5 mps 759 mmHg 33%
    16:00 +19°C° 0 mm 5 mps 759 mmHg 39%
    17:00 +18°C° 0 mm 4 mps 759 mmHg 46%
    18:00 +17°C° 0 mm 4 mps 760 mmHg 52%
    19:00 +15°C° 0 mm 4 mps 760 mmHg 60%
    20:00 +14°C° 0 mm 3 mps 760 mmHg 68%
    21:00 +13°C° 0 mm 2 mps 760 mmHg 76%
    22:00 +13°C° 0 mm 2 mps 760 mmHg 78%
    23:00 +12°C° 0 mm 2 mps 760 mmHg 81%

    23 November, Saturday

    Time Temperature Precipitation Wind Pressure Humidity
    00:00 +12°C° 0 mm 1 mps 760 mmHg 83%
    01:00 +12°C° 0 mm 2 mps 760 mmHg 83%
    02:00 +12°C° 0 mm 2 mps 760 mmHg 83%
    03:00 +12°C° 0 mm 2 mps 760 mmHg 83%
    04:00 +13°C° 0 mm 2 mps 760 mmHg 80%
    05:00 +15°C° 0 mm 2 mps 761 mmHg 77%
    06:00 +16°C° 0 mm 3 mps 761 mmHg 74%
    07:00 +17°C° 0 mm 3 mps 761 mmHg 69%
    08:00 +18°C° 0 mm 3 mps 761 mmHg 65%
    09:00 +19°C° 0 mm 3 mps 761 mmHg 61%
    10:00 +20°C° 0 mm 3 mps 761 mmHg 57%
    11:00 +21°C° 0 mm 3 mps 761 mmHg 53%
    12:00 +21°C° 0 mm 3 mps 761 mmHg 50%
    13:00 +21°C° 0 mm 3 mps 760 mmHg 50%
    14:00 +21°C° 0 mm 4 mps 760 mmHg 51%
    15:00 +21°C° 0 mm 4 mps 760 mmHg 51%
    16:00 +20°C° 0 mm 4 mps 760 mmHg 56%
    17:00 +19°C° 0 mm 4 mps 761 mmHg 60%
    18:00 +18°C° 0 mm 4 mps 761 mmHg 64%
    19:00 +17°C° 0 mm 4 mps 761 mmHg 71%
    20:00 +14°C° 0 mm 3 mps 762 mmHg 78%
    21:00 +12°C° 0 mm 3 mps 762 mmHg 85%
    22:00 +12°C° 0 mm 3 mps 762 mmHg 85%
    23:00 +12°C° 0 mm 2 mps 761 mmHg 86%

    24 November, Sunday

    Time Temperature Precipitation Wind Pressure Humidity
    00:00 +12°C° 0 mm 2 mps 761 mmHg 87%
    01:00 +10°C° 0 mm 2 mps 761 mmHg 87%
    02:00 +10°C° 0 mm 2 mps 761 mmHg 88%
    03:00 +10°C° 0 mm 2 mps 760 mmHg 88%
    04:00 +12°C° 0 mm 2 mps 760 mmHg 82%
    05:00 +13°C° 0 mm 2 mps 760 mmHg 76%
    06:00 +14°C° 0 mm 2 mps 760 mmHg 70%
    07:00 +17°C° 0 mm 2 mps 760 mmHg 57%
    08:00 +20°C° 0 mm 2 mps 759 mmHg 45%
    09:00 +24°C° 0 mm 2 mps 759 mmHg 32%
    10:00 +25°C° 0 mm 2 mps 758 mmHg 31%
    11:00 +25°C° 0 mm 3 mps 758 mmHg 30%
    12:00 +26°C° 0 mm 3 mps 757 mmHg 29%
    13:00 +26°C° 0 mm 3 mps 756 mmHg 29%
    14:00 +27°C° 0 mm 4 mps 756 mmHg 29%
    15:00 +27°C° 0 mm 4 mps 755 mmHg 29%
    16:00 +26°C° 0 mm 3 mps 756 mmHg 32%
    17:00 +24°C° 0 mm 3 mps 756 mmHg 35%
    18:00 +23°C° 0 mm 2 mps 756 mmHg 38%
    19:00 +21°C° 0 mm 2 mps 756 mmHg 40%
    20:00 +20°C° 0 mm 2 mps 756 mmHg 41%
    21:00 +20°C° 0 mm 1 mps 756 mmHg 43%
    22:00 +19°C° 0 mm 2 mps 755 mmHg 41%
    23:00 +19°C° 0 mm 2 mps 754 mmHg 39%
    Show more